SCP
0 0 0 0 0 0 0 0 0 0 0 0 0 0 0 0 0 0 0 0 0 0 0 0 0 0 0 0 0 0 0 0 0 0 0 0 0 0 0 0 0 0 0 0
0 0 0 0 0 0 0 0 0 0 0 0 0 0 0 0 0 0 0 0 0 0 0 0 0 0 0 0 0 0 0 0 0 0 0 0 0 0 0 0 0 0 0 0
0 0 0 0 0 0 0 0 0 0 0 0 0 0 0 0 0 0 0 0 0 0 0 0 0 0 0 0 0 0 0 0 0 0 0 0 0 0 0 0 0 0 0 0
0 0 0 0 0 0 0 0 0 0 0 0 0 0 0 0 0 0 0 0 0 0 0 0 0 0 0 0 0 0 0 0 0 0 0 0 0 0 0 0 0 0 0 0
0 0 0 0 0 0 0 0 0 0 0 0 0 0 0 0 0 0 0 0 0 0 0 0 0 0 0 0 0 0 0 0 0 0 0 0 0 0 0 0 0 0 0 0
0 0 0 0 0 0 0 0 0 0 0 0 0 0 0 0 0 0 0 0 0 0 0 0 0 0 0 0 0 0 0 0 0 0 0 0 0 0 0 0 0 0 0 0
0 0 0 0 0 0 0 0 0 0 0 0 0 0 0 0 0 0 0 0 0 0 0 0 0 0 0 0 0 0 0 0 0 0 0 0 0 0 0 0 0 0 0 0
0 0 0 0 0 0 0 0 0 0 0 0 0 0 0 0 0 0 0 0 0 0 0 0 0 0 0 0 0 0 0 0 0 0 0 0 0 0 0 0 0 0 0 0
0 0 0 0 0 0 0 0 0 0 0 0 0 0 0 0 0 0 0 0 0 0 0 0 0 0 0 0 0 0 0 0 0 0 0 0 0 0 0 0 0 0 0 0
0 0 0 0 0 0 0 0 0 0 0 0 0 0 0 0 0 0 0 0 0 0 0 0 0 0 0 0 0 0 0 0 0 0 0 0 0 0 0 0 0 0 0 0
0 0 0 0 0 0 0 0 0 0 0 0 0 0 0 0 0 0 0 0 0 0 0 0 0 0 0 0 0 0 0 0 0 0 0 0 0 0 0 0 0 0 0 0
0 0 0 0 0 0 0 0 0 0 0 0 0 0 0 0 0 0 0 0 0 0 0 0 0 0 0 0 0 0 0 0 0 0 0 0 0 0 0 0 0 0 0 0
0 0 0 0 0 0 0 0 0 0 0 0 0 0 0 0 0 0 0 0 0 0 0 0 0 0 0 0 0 0 0 0 0 0 0 0 0 0 0 0 0 0 0 0
0 0 0 0 0 0 0 0 0 0 0 0 0 0 0 0 0 0 0 0 0 0 0 0 0 0 0 0 0 0 0 0 0 0 0 0 0 0 0 0 0 0 0 0
0 0 0 0 0 0 0 0 0 0 0 0 0 0 0 0 0 0 0 0 0 0 0 0 0 0 0 0 0 0 0 0 0 0 0 0 0 0 0 0 0 0 0 0
0 0 0 0 0 0 0 0 0 0 0 0 0 0 0 0 0 0 0 0 0 0 0 0 0 0 0 0 0 0 0 0 0 0 0 0 0 0 0 0 0 0 0 0
0 0 0 0 0 0 0 0 0 0 0 0 0 0 0 0 0 0 0 0 0 0 0 0 0 0 0 0 0 0 0 0 0 0 0 0 0 0 0 0 0 0 0 0
0 0 0 0 0 0 0 0 0 0 0 0 0 0 0 0 0 0 0 0 0 0 0 0 0 0 0 0 0 0 0 0 0 0 0 0 0 0 0 0 0 0 0 0
0 0 0 0 0 0 0 0 0 0 0 0 0 0 0 0 0 0 0 0 0 0 0 0 0 0 0 0 0 0 0 0 0 0 0 0 0 0 0 0 0 0 0 0
0 0 0 0 0 0 0 0 0 0 0 0 0 0 0 0 0 0 0 0 0 0 0 0 0 0 0 0 0 0 0 0 0 0 0 0 0 0 0 0 0 0 0 0
0 0 0 0 0 0 0 0 0 0 0 0 0 0 0 0 0 0 0 0 0 0 0 0 0 0 0 0 0 0 0 0 0 0 0 0 0 0 0 0 0 0 0 0
0 0 0 0 0 0 0 0 0 0 0 0 0 0 0 0 0 0 0 0 0 0 0 0 0 0 0 0 0 0 0 0 0 0 0 0 0 0 0 0 0 0 0 0
0 0 0 0 0 0 0 0 0 0 0 0 0 0 0 0 0 0 0 0 0 0 0 0 0 0 0 0 0 0 0 0 0 0 0 0 0 0 0 0 0 0 0 0
0 0 0 0 0 0 0 0 0 0 0 0 0 0 0 0 0 0 0 0 0 0 0 0 0 0 0 0 0 0 0 0 0 0 0 0 0 0 0 0 0 0 0 0
-0 0 0 0 0 0 0 0 0 0 0 0 0 0 0 0 0 0 0 0 0 0 0 0 0 0 0 0 0 0 0 0 0 0 0 0 0 0 0 0 0 0 0 0
-0 0 0 0 0 0 0 0 0 0 0 0 0 0 0 0 0 0 0 0 0 0 0 0 0 0 0 0 0 0 0 0 0 0 0 0 0 0 0 0 0 0 0 0
Wind_Speed
3 4 8 13 13 7 7 6 6 7 4 7 11 14 12 7 8 10 11 13 15 15 8 8 8 8 7 7 7 9 10 10 10 8 7 7 6 6 6 6 8 8 8 8
3 8 14 7 5 5 5 6 7 7 4 7 8 13 12 8 10 13 15 18 19 13 10 12 10 9 9 9 9 10 11 11 9 6 6 5 7 6 5 6 7 7 8 8
12 9 7 8 6 7 8 10 10 8 3 3 4 9 9 10 9 10 12 15 15 19 19 16 14 12 10 11 11 10 11 10 9 10 10 10 7 6 5 6 5 6 7 8
10 6 6 7 9 11 9 9 9 7 4 6 5 9 9 9 10 13 18 16 16 16 17 17 16 14 13 11 9 9 10 10 11 12 13 15 10 8 5 5 6 7 7 8
11 8 9 10 10 14 9 5 6 5 5 5 4 8 9 5 10 14 18 20 18 17 18 19 18 16 12 10 10 10 11 11 12 11 12 13 11 9 9 7 9 8 6 7
6 6 9 10 6 8 6 6 5 5 2 8 10 12 11 10 12 12 16 17 16 16 16 15 13 12 10 9 10 11 12 12 12 11 10 13 18 16 15 12 10 7 5 5
5 6 4 4 7 4 6 7 1 3 3 11 6 11 13 11 11 13 15 14 12 14 16 16 17 16 14 14 13 13 14 13 12 12 11 13 17 18 19 16 12 11 7 5
8 9 12 9 11 11 10 13 11 9 9 8 5 14 11 7 7 8 9 8 7 12 15 18 19 18 16 15 14 14 14 14 13 14 12 11 12 11 11 11 11 10 8 7
11 10 4 8 6 14 9 8 8 5 2 6 10 11 10 5 8 11 10 6 9 14 16 16 16 16 16 16 15 15 15 14 14 14 14 12 11 10 12 10 9 8 8 8
9 6 3 3 3 2 8 9 6 7 6 9 10 9 8 9 14 12 9 10 11 11 13 14 15 16 14 13 11 12 13 14 13 14 14 13 11 10 12 12 11 10 10 9
7 7 2 4 11 13 9 8 7 7 6 7 9 13 9 12 11 10 13 12 11 14 15 15 14 12 12 11 11 12 12 12 13 14 13 13 11 10 11 11 12 11 10 11
9 5 6 8 6 4 7 10 12 10 8 7 9 16 4 7 7 8 10 8 9 11 11 11 11 12 12 13 13 13 13 13 13 13 12 13 12 12 12 12 11 11 11 10
10 7 4 4 3 4 7 8 11 7 6 9 12 15 0 1 4 5 7 6 8 10 11 11 12 14 14 14 14 14 14 14 12 13 13 14 14 14 14 13 12 11 11 10
9 9 12 15 9 10 10 11 13 12 10 13 20 21 7 4 6 6 5 5 7 10 13 14 15 15 15 15 15 15 15 14 14 14 15 16 16 15 14 13 12 12 11 11
9 12 14 15 5 6 10 14 18 22 23 19 21 24 23 10 11 9 6 6 8 11 14 18 18 17 16 16 16 16 16 16 16 16 16 16 13 12 12 12 12 11 11 11
10 9 11 17 14 9 9 15 21 26 21 26 24 34 17 7 9 9 9 10 13 15 18 19 19 18 19 20 19 18 18 18 16 17 16 13 13 13 13 13 12 12 11 10
8 8 9 14 12 10 21 29 20 15 16 14 26 37 13 10 13 17 16 14 16 18 19 20 22 22 22 22 21 21 19 16 16 15 14 14 14 14 14 13 12 13 12 10
11 10 7 7 9 21 18 11 20 24 24 22 21 20 12 16 17 15 12 13 16 17 17 18 18 20 19 17 16 13 13 15 16 14 14 14 14 14 13 13 13 12 9 10
15 13 9 8 14 14 12 7 12 18 24 26 28 27 22 12 7 13 10 13 16 16 15 16 17 16 14 15 15 14 14 14 15 16 16 15 15 14 14 15 14 11 10 10
15 13 12 11 10 11 10 4 6 10 15 11 16 24 22 9 10 18 7 9 11 9 9 9 9 9 12 14 15 16 16 16 18 18 15 14 14 15 16 15 13 9 9 10
12 13 18 19 15 9 7 4 9 10 11 2 6 10 9 10 14 7 1 2 3 3 3 5 8 9 11 14 16 16 16 18 16 12 12 13 14 15 14 12 9 8 8 8
11 10 11 10 12 11 7 9 12 7 1 2 1 2 3 4 2 2 2 2 2 3 3 4 7 6 8 12 15 15 15 13 10 11 12 12 13 11 9 10 9 9 9 9
10 10 7 9 8 3 6 5 2 2 2 1 1 0 1 1 0 1 2 3 4 4 4 4 7 7 6 7 10 12 9 9 11 11 12 11 10 10 10 11 11 9 9 8
5 2 4 5 6 2 1 0 0 1 2 1 1 1 1 1 1 2 3 3 3 4 4 4 7 7 5 4 4 5 7 9 10 11 10 9 10 9 8 7 8 9 10 9
6 6 5 5 3 1 4 5 4 3 3 3 3 2 2 3 3 2 3 3 3 3 3 4 5 5 5 5 5 5 6 8 8 8 7 7 7 8 8 7 7 9 8 9
5 7 8 7 6 6 4 4 6 5 4 3 3 3 2 3 4 4 3 3 3 4 4 5 5 5 5 5 5 4 4 6 7 6 6 5 5 5 5 5 3 10 9 12
Wind_Direction
124 116 194 204 198 192 181 194 227 246 222 185 221 244 253 206 219 230 224 217 217 218 199 183 184 180 175 172 165 159 151 148 141 135 128 117 105 98 90 86 89 95 98 97
95 229 223 200 197 213 217 237 257 277 249 202 240 254 255 223 214 221 221 219 218 208 189 190 187 183 182 177 173 168 164 161 157 141 126 117 117 103 93 90 82 82 91 96
186 219 194 168 184 200 225 222 235 246 304 265 287 285 251 243 225 231 229 225 217 205 196 190 187 187 183 183 180 175 170 162 147 136 124 118 110 106 95 92 84 75 85 89
223 222 154 172 195 186 232 217 216 228 239 261 214 270 251 236 238 237 237 230 222 208 196 188 186 186 186 183 175 169 162 154 148 147 146 146 144 137 132 126 111 94 87 93
224 192 181 195 198 181 213 190 187 207 218 259 218 257 261 216 240 245 240 234 224 207 194 190 186 183 177 172 169 163 156 154 154 157 156 144 133 127 129 122 114 105 93 91
232 202 201 206 181 170 136 82 60 46 75 259 209 228 258 196 213 232 241 236 221 201 191 185 175 167 167 165 163 162 159 158 158 157 157 148 142 142 141 140 131 123 114 103
246 229 220 152 125 131 140 118 52 302 262 248 204 229 250 216 214 218 236 242 217 190 180 176 174 174 173 171 169 166 163 162 161 158 157 157 153 152 152 150 146 142 138 132
199 241 202 189 169 170 186 168 177 202 231 265 238 239 252 241 249 258 262 262 204 182 181 182 181 178 175 174 171 169 168 165 163 161 160 158 156 153 151 151 150 148 146 142
196 235 219 203 180 155 172 208 176 168 255 276 255 264 292 257 264 254 254 246 204 189 185 183 180 179 177 176 176 173 169 166 166 164 160 160 161 157 152 148 144 143 143 143
177 223 229 177 106 169 155 153 134 175 211 251 264 247 238 215 230 237 236 229 213 190 184 182 181 180 179 176 171 169 171 170 167 164 165 165 164 159 154 152 153 151 150 145
194 208 203 164 187 181 158 173 180 175 181 193 272 262 211 209 220 229 234 226 204 191 188 185 182 178 174 169 170 172 172 167 167 168 166 162 164 159 157 158 158 156 152 153
192 191 228 224 235 216 194 182 169 180 212 205 243 264 181 207 232 240 248 231 196 191 185 180 175 173 176 178 178 178 176 174 173 168 165 165 163 161 163 163 161 158 158 159
155 170 221 267 243 210 211 205 201 198 183 205 229 262 259 204 265 257 251 228 187 179 175 174 178 183 186 185 184 183 181 177 171 168 166 166 169 170 170 167 164 164 162 160
162 176 206 218 201 179 200 208 203 195 218 232 235 252 237 236 254 260 246 211 184 182 183 185 190 192 191 189 188 186 184 178 174 173 174 176 178 176 172 167 167 169 167 166
174 205 223 241 216 177 198 207 208 212 220 229 245 250 249 220 241 251 239 201 187 191 194 197 198 196 192 191 190 188 186 182 179 179 182 184 177 170 166 168 170 170 171 172
191 210 214 239 230 212 225 229 220 221 228 236 251 258 252 222 232 241 229 206 204 206 206 205 202 197 196 195 193 190 189 185 182 184 186 178 172 172 173 173 171 173 175 172
194 200 209 241 226 216 234 231 219 220 222 219 239 252 251 232 230 235 232 216 213 214 212 207 204 202 201 198 193 192 188 179 182 185 181 177 177 177 178 174 174 181 180 174
196 202 216 235 216 233 242 220 208 221 230 225 238 253 243 230 239 241 229 217 221 220 217 213 208 206 203 194 188 181 172 175 182 182 181 179 179 180 176 176 184 185 179 182
204 205 216 224 238 251 264 216 188 207 237 229 233 248 253 246 277 268 237 223 227 222 218 214 208 202 188 181 175 167 172 176 182 187 187 184 181 180 180 186 190 186 182 190
206 207 220 227 231 228 242 206 176 166 245 237 218 238 249 231 243 260 243 228 233 229 217 206 185 167 168 170 162 167 175 180 190 192 188 181 181 184 189 193 190 183 188 195
195 207 223 232 240 243 241 162 128 174 236 229 210 234 240 214 230 266 334 270 249 231 205 168 157 161 166 159 161 172 178 191 192 180 173 177 184 190 191 189 183 179 184 185
189 201 213 221 233 238 188 151 181 207 152 161 205 234 225 228 268 344 28 23 38 60 83 119 131 135 142 154 162 174 188 187 164 164 174 182 187 187 184 183 183 180 182 189
202 200 195 203 219 210 166 184 188 136 158 173 192 304 146 139 37 54 62 55 50 62 69 82 111 113 124 153 165 177 178 151 154 165 178 181 180 183 182 185 184 180 184 196
229 182 177 221 243 217 198 197 199 133 144 129 120 113 121 126 110 91 87 77 68 64 69 87 109 118 123 132 139 141 135 143 153 167 172 170 174 179 179 182 183 185 190 198
195 171 187 222 236 308 253 216 189 148 125 113 89 79 101 120 115 116 109 101 93 80 68 85 103 113 113 107 99 105 129 142 152 160 162 167 173 176 181 188 196 195 201 201
186 179 183 212 198 187 214 189 171 161 167 155 121 86 72 110 124 112 103 94 93 88 82 87 88 95 99 101 95 90 117 140 146 155 163 168 169 172 175 181 203 226 214 221